Weather History for Clarksville, TN

Change the Weather History Date:

Tuesday, September 10, 2013

  Actual Average Record
Temperature  
Mean Temperature 80 °F -  
Max Temperature 89 °F - 99 °F (1980)
Min Temperature 70 °F - 44 °F (1969)
Degree Days  
Heating Degree Days 0    
Month to date heating degree days 0  
Since 1 July heating degree days 0  
Cooling Degree Days 15    
Month to date cooling degree days 112  
Growing Degree Days 30 (Base 50)    
Moisture  
Dew Point 70 °F    
Average Humidity 75    
Maximum Humidity 94    
Minimum Humidity 56    
Precipitation  
Precipitation 0.00 in - 0.87 in (2007)
Month to date precipitation 0.81  
Sea Level Pressure  
Sea Level Pressure 30.11 in    
Wind  
Wind Speed 4 mph (SSE)    
Max Wind Speed 18 mph    
Max Gust Speed 25 mph    
Visibility 8 miles    
Events      
T = Trace of Precipitation, MM = Missing Value Source: NWS Daily Summary

Daily Weather History Graph

Daily Weather History Graph

Search for Another Location

Airport:

Trip Planner

Search our weather history database for the weather conditions in past years. The results will help you decide how hot, cold, wet, or windy it might be!

Date:

Astronomy

Sep. 10, 2013 Rise Set
Actual Time 6:28 AM CDT 7:04 PM CDT
Civil Twilight 6:02 AM CDT 7:30 PM CDT
Nautical Twilight 5:31 AM CDT 8:00 PM CDT
Astronomical Twilight 4:59 AM CDT 8:32 PM CDT
Moon 11:43 AM CDT (9/10) 10:16 PM CDT (9/10)
Length of Visible Light 13h 28m
Length of Day
12h 36m
Waxing Crescent, 28% of the Moon is Illuminated
Sep 10
Waxing Crescent
Sep 12
First Quarter
Sep 19
Full
Sep 26
Last Quarter
Oct 4
New

Hourly Weather History & Observations

Time (CDT) Temp. Heat Index Dew Point Humidity Pressure Visibility Wind Dir Wind Speed Gust Speed Precip Events Conditions
12:52 AM 75.0 °F - 72.0 °F 90% 30.05 in 8.0 mi SE 3.5 mph - N/A   Clear
1:52 AM 73.9 °F - 71.1 °F 91% 30.05 in 8.0 mi SE 3.5 mph - N/A   Clear
2:52 AM 73.9 °F - 71.1 °F 91% 30.06 in 6.0 mi ESE 4.6 mph - N/A   Clear
3:52 AM 73.9 °F - 72.0 °F 93% 30.06 in 6.0 mi SSE 4.6 mph - N/A   Clear
4:52 AM 72.0 °F - 70.0 °F 93% 30.07 in 5.0 mi SE 3.5 mph - N/A   Partly Cloudy
5:52 AM 72.0 °F - 70.0 °F 93% 30.09 in 6.0 mi Calm Calm - N/A   Clear
6:52 AM 73.0 °F - 71.1 °F 93% 30.12 in 4.0 mi SE 3.5 mph - N/A   Scattered Clouds
7:52 AM 75.9 °F - 73.0 °F 91% 30.13 in 5.0 mi SSE 3.5 mph - N/A   Scattered Clouds
8:52 AM 80.1 °F 84.2 °F 73.0 °F 79% 30.14 in 9.0 mi SSE 4.6 mph - N/A   Partly Cloudy
9:52 AM 82.9 °F 88.8 °F 73.0 °F 72% 30.15 in 8.0 mi South 10.4 mph - N/A   Partly Cloudy
10:52 AM 82.0 °F 86.7 °F 72.0 °F 71% 30.15 in 8.0 mi SW 6.9 mph - N/A   Scattered Clouds
11:52 AM 84.0 °F 89.6 °F 72.0 °F 67% 30.15 in 8.0 mi SSW 6.9 mph - N/A   Clear
12:52 PM 84.9 °F 90.1 °F 71.1 °F 63% 30.15 in 10.0 mi Variable 3.5 mph - N/A   Clear
1:52 PM 88.0 °F 93.8 °F 71.1 °F 57% 30.13 in 10.0 mi Variable 3.5 mph - N/A   Clear
2:52 PM 88.0 °F 94.7 °F 72.0 °F 59% 30.09 in 10.0 mi Variable 4.6 mph - N/A   Clear
3:52 PM 89.1 °F 95.0 °F 71.1 °F 55% 30.10 in 10.0 mi Variable 5.8 mph - N/A   Clear
4:52 PM 82.0 °F 84.5 °F 66.9 °F 60% 30.11 in 10.0 mi South 13.8 mph 19.6 mph N/A   Clear
5:52 PM 80.1 °F 81.9 °F 64.9 °F 60% 30.12 in 10.0 mi South 3.5 mph - N/A   Clear
6:52 PM 78.1 °F - 66.0 °F 66% 30.12 in 10.0 mi SE 4.6 mph - N/A   Clear
7:52 PM 73.9 °F - 66.9 °F 79% 30.13 in 10.0 mi Calm Calm - N/A   Clear
8:52 PM 73.0 °F - 66.9 °F 81% 30.15 in 10.0 mi SSE 3.5 mph - N/A   Clear
9:52 PM 73.0 °F - 68.0 °F 84% 30.15 in 10.0 mi South 3.5 mph - N/A   Clear
10:52 PM 72.0 °F - 69.1 °F 91% 30.14 in 10.0 mi SSW 3.5 mph - N/A   Clear
11:52 PM 72.0 °F - 69.1 °F 91% 30.13 in 10.0 mi Calm Calm - N/A   Clear